Time,TemperatureF,DewpointF,PressureIn,WindDirection,WindDirectionDegrees,WindSpeedMPH,WindSpeedGustMPH,Humidity,HourlyPrecipIn,Conditions,Clouds,dailyrainin,SoftwareType,DateUTC
2013-03-30 00:00:00,44.4,34.1,30.14,West,276,5.0,8.0,67,0.00,,---,0.00,VWS V14.01,2013-03-30 04:00:00,
2013-03-30 00:05:00,44.3,34.4,30.14,West,279,3.0,6.0,68,0.00,,---,0.00,VWS V14.01,2013-03-30 04:05:00,
2013-03-30 00:10:00,44.1,34.6,30.14,WSW,258,5.0,6.0,69,0.00,,---,0.00,VWS V14.01,2013-03-30 04:10:00,
2013-03-30 00:15:00,43.8,34.7,30.14,West,271,4.0,6.0,70,0.00,,---,0.00,VWS V14.01,2013-03-30 04:15:00,
2013-03-30 00:21:00,43.7,34.9,30.15,West,264,4.0,6.0,71,0.00,,---,0.00,VWS V14.01,2013-03-30 04:21:00,
2013-03-30 00:26:00,43.4,35.3,30.15,West,276,2.0,6.0,73,0.00,,---,0.00,VWS V14.01,2013-03-30 04:26:00,
2013-03-30 00:31:00,43.2,35.5,30.15,West,271,4.0,4.0,74,0.00,,---,0.00,VWS V14.01,2013-03-30 04:31:00,
2013-03-30 00:36:00,43.1,35.4,30.15,West,265,3.0,5.0,74,0.00,,---,0.00,VWS V14.01,2013-03-30 04:36:00,
2013-03-30 00:41:00,43.0,35.6,30.15,West,266,4.0,5.0,75,0.00,,---,0.00,VWS V14.01,2013-03-30 04:41:00,
2013-03-30 00:46:00,42.9,35.5,30.15,West,263,3.0,6.0,75,0.00,,---,0.00,VWS V14.01,2013-03-30 04:46:00,
2013-03-30 00:51:00,42.9,35.5,30.15,West,266,3.0,6.0,75,0.00,,---,0.00,VWS V14.01,2013-03-30 04:51:00,
2013-03-30 00:56:00,42.8,35.4,30.15,WNW,296,3.0,6.0,75,0.00,,---,0.00,VWS V14.01,2013-03-30 04:56:00,
2013-03-30 01:01:00,42.8,35.1,30.15,WNW,282,2.0,4.0,74,0.00,,---,0.00,VWS V14.01,2013-03-30 05:01:00,
2013-03-30 01:06:00,42.7,35.3,30.15,WSW,239,2.0,5.0,75,0.00,,---,0.00,VWS V14.01,2013-03-30 05:06:00,
2013-03-30 01:11:00,42.6,35.6,30.15,WSW,258,2.0,5.0,76,0.00,,---,0.00,VWS V14.01,2013-03-30 05:11:00,
2013-03-30 01:16:00,42.5,35.5,30.15,West,267,2.0,5.0,76,0.00,,---,0.00,VWS V14.01,2013-03-30 05:16:00,
2013-03-30 01:21:00,42.4,35.0,30.15,WSW,255,3.0,5.0,75,0.00,,---,0.00,VWS V14.01,2013-03-30 05:21:00,
2013-03-30 01:26:00,42.5,34.5,30.15,WSW,246,3.0,5.0,73,0.00,,---,0.00,VWS V14.01,2013-03-30 05:26:00,
2013-03-30 01:31:00,42.5,34.1,30.15,WSW,252,2.0,4.0,72,0.00,,---,0.00,VWS V14.01,2013-03-30 05:31:00,
2013-03-30 01:36:00,42.6,34.2,30.15,WNW,300,3.0,4.0,72,0.00,,---,0.00,VWS V14.01,2013-03-30 05:36:00,
2013-03-30 01:41:00,42.6,34.2,30.15,West,267,2.0,4.0,72,0.00,,---,0.00,VWS V14.01,2013-03-30 05:41:00,
2013-03-30 01:46:00,42.4,34.4,30.15,WNW,298,2.0,4.0,73,0.00,,---,0.00,VWS V14.01,2013-03-30 05:46:00,
2013-03-30 01:51:00,42.3,34.3,30.15,West,264,2.0,4.0,73,0.00,,---,0.00,VWS V14.01,2013-03-30 05:51:00,
2013-03-30 01:56:00,42.2,34.2,30.15,WNW,283,1.0,4.0,73,0.00,,---,0.00,VWS V14.01,2013-03-30 05:56:00,
2013-03-30 02:01:00,42.0,34.3,30.15,West,260,1.0,2.0,74,0.00,,---,0.00,VWS V14.01,2013-03-30 06:01:00,
2013-03-30 02:07:00,41.9,34.2,30.15,West,268,2.0,3.0,74,0.00,,---,0.00,VWS V14.01,2013-03-30 06:07:00,
2013-03-30 02:12:00,41.8,34.5,30.15,West,259,3.0,3.0,75,0.00,,---,0.00,VWS V14.01,2013-03-30 06:12:00,
2013-03-30 02:17:00,41.8,33.8,30.15,SW,231,2.0,4.0,73,0.00,,---,0.00,VWS V14.01,2013-03-30 06:17:00,
2013-03-30 02:22:00,41.8,33.8,30.15,WSW,256,3.0,4.0,73,0.00,,---,0.00,VWS V14.01,2013-03-30 06:22:00,
2013-03-30 02:27:00,41.9,33.2,30.15,WSW,257,2.0,5.0,71,0.00,,---,0.00,VWS V14.01,2013-03-30 06:27:00,
2013-03-30 02:32:00,41.9,33.5,30.15,West,277,3.0,4.0,72,0.00,,---,0.00,VWS V14.01,2013-03-30 06:32:00,
2013-03-30 02:37:00,41.9,33.9,30.15,WSW,250,3.0,4.0,73,0.00,,---,0.00,VWS V14.01,2013-03-30 06:37:00,
2013-03-30 02:42:00,41.8,33.8,30.15,WSW,238,1.0,4.0,73,0.00,,---,0.00,VWS V14.01,2013-03-30 06:42:00,
2013-03-30 02:47:00,41.7,33.7,30.14,SW,235,2.0,4.0,73,0.00,,---,0.00,VWS V14.01,2013-03-30 06:47:00,
2013-03-30 02:52:00,41.6,33.3,30.15,WSW,252,3.0,5.0,72,0.00,,---,0.00,VWS V14.01,2013-03-30 06:52:00,
2013-03-30 02:57:00,41.5,33.2,30.15,WSW,238,4.0,5.0,72,0.00,,---,0.00,VWS V14.01,2013-03-30 06:57:00,
2013-03-30 03:02:00,41.4,33.1,30.14,WSW,255,4.0,4.0,72,0.00,,---,0.00,VWS V14.01,2013-03-30 07:02:00,
2013-03-30 03:07:00,41.4,33.1,30.15,West,259,5.0,5.0,72,0.00,,---,0.00,VWS V14.01,2013-03-30 07:07:00,
2013-03-30 03:12:00,41.3,33.3,30.14,West,266,4.0,5.0,73,0.00,,---,0.00,VWS V14.01,2013-03-30 07:12:00,
2013-03-30 03:18:00,41.1,33.5,30.14,West,276,3.0,5.0,74,0.00,,---,0.00,VWS V14.01,2013-03-30 07:18:00,
2013-03-30 03:23:00,40.9,33.3,30.14,West,260,3.0,5.0,74,0.00,,---,0.00,VWS V14.01,2013-03-30 07:23:00,
2013-03-30 03:28:00,40.8,33.5,30.14,West,276,3.0,5.0,75,0.00,,---,0.00,VWS V14.01,2013-03-30 07:28:00,
2013-03-30 03:33:00,40.7,33.7,30.14,WSW,257,4.0,5.0,76,0.00,,---,0.00,VWS V14.01,2013-03-30 07:33:00,
2013-03-30 03:38:00,40.5,33.9,30.14,WNW,289,4.0,5.0,77,0.00,,---,0.00,VWS V14.01,2013-03-30 07:38:00,
2013-03-30 03:43:00,40.3,34.0,30.14,WSW,250,4.0,5.0,78,0.00,,---,0.00,VWS V14.01,2013-03-30 07:43:00,
2013-03-30 03:48:00,40.1,33.8,30.14,WNW,293,1.0,5.0,78,0.00,,---,0.00,VWS V14.01,2013-03-30 07:48:00,
2013-03-30 03:53:00,40.0,33.7,30.14,West,259,3.0,5.0,78,0.00,,---,0.00,VWS V14.01,2013-03-30 07:53:00,
2013-03-30 03:58:00,40.0,33.7,30.14,West,269,2.0,5.0,78,0.00,,---,0.00,VWS V14.01,2013-03-30 07:58:00,
2013-03-30 04:03:00,40.1,33.8,30.14,West,276,3.0,4.0,78,0.00,,---,0.00,VWS V14.01,2013-03-30 08:03:00,
2013-03-30 04:08:00,40.1,33.8,30.14,West,267,3.0,4.0,78,0.00,,---,0.00,VWS V14.01,2013-03-30 08:08:00,
2013-03-30 04:13:00,40.1,33.8,30.14,West,267,4.0,5.0,78,0.00,,---,0.00,VWS V14.01,2013-03-30 08:13:00,
2013-03-30 04:18:00,39.9,33.6,30.14,WSW,246,3.0,6.0,78,0.00,,---,0.00,VWS V14.01,2013-03-30 08:18:00,
2013-03-30 04:23:00,40.0,33.7,30.14,WNW,286,6.0,6.0,78,0.00,,---,0.00,VWS V14.01,2013-03-30 08:23:00,
2013-03-30 04:28:00,40.2,33.6,30.14,West,262,4.0,7.0,77,0.00,,---,0.00,VWS V14.01,2013-03-30 08:28:00,
2013-03-30 04:33:00,40.1,33.8,30.14,West,280,3.0,4.0,78,0.00,,---,0.00,VWS V14.01,2013-03-30 08:33:00,
2013-03-30 04:38:00,39.9,33.9,30.14,WSW,257,3.0,5.0,79,0.00,,---,0.00,VWS V14.01,2013-03-30 08:38:00,
2013-03-30 04:43:00,39.7,33.7,30.14,SW,226,4.0,5.0,79,0.00,,---,0.00,VWS V14.01,2013-03-30 08:43:00,
2013-03-30 04:48:00,39.3,33.3,30.14,West,260,3.0,5.0,79,0.00,,---,0.00,VWS V14.01,2013-03-30 08:48:00,
2013-03-30 04:53:00,39.1,33.2,30.14,WSW,246,4.0,5.0,79,0.00,,---,0.00,VWS V14.01,2013-03-30 08:53:00,
2013-03-30 04:58:00,38.9,33.3,30.14,West,275,3.0,5.0,80,0.00,,---,0.00,VWS V14.01,2013-03-30 08:58:00,
2013-03-30 05:03:00,38.8,33.2,30.14,West,264,2.0,4.0,80,0.00,,---,0.00,VWS V14.01,2013-03-30 09:03:00,
2013-03-30 05:08:00,38.7,33.1,30.14,WSW,252,4.0,4.0,80,0.00,,---,0.00,VWS V14.01,2013-03-30 09:08:00,
2013-03-30 05:13:00,38.8,33.2,30.14,West,271,2.0,4.0,80,0.00,,---,0.00,VWS V14.01,2013-03-30 09:13:00,
2013-03-30 05:18:00,38.7,33.1,30.15,West,259,3.0,5.0,80,0.00,,---,0.00,VWS V14.01,2013-03-30 09:18:00,
2013-03-30 05:23:00,38.6,33.3,30.15,West,267,2.0,5.0,81,0.00,,---,0.00,VWS V14.01,2013-03-30 09:23:00,
2013-03-30 05:28:00,38.4,33.1,30.15,West,262,2.0,5.0,81,0.00,,---,0.00,VWS V14.01,2013-03-30 09:28:00,
2013-03-30 05:33:00,38.4,33.4,30.14,WSW,257,2.0,3.0,82,0.00,,---,0.00,VWS V14.01,2013-03-30 09:33:00,
2013-03-30 05:34:00,38.4,33.1,30.14,West,274,2.0,3.0,81,0.00,,---,0.00,VWS V14.01,2013-03-30 09:34:00,
2013-03-30 05:39:00,38.3,33.0,30.14,WSW,255,2.0,3.0,81,0.00,,---,0.00,VWS V14.01,2013-03-30 09:39:00,
2013-03-30 05:44:00,38.2,32.6,30.15,West,274,2.0,3.0,80,0.00,,---,0.00,VWS V14.01,2013-03-30 09:44:00,
2013-03-30 05:49:00,38.1,32.5,30.15,West,276,3.0,4.0,80,0.00,,---,0.00,VWS V14.01,2013-03-30 09:49:00,
2013-03-30 05:54:00,37.9,32.3,30.15,West,280,2.0,4.0,80,0.00,,---,0.00,VWS V14.01,2013-03-30 09:54:00,
2013-03-30 05:59:00,37.9,32.3,30.15,WSW,257,2.0,4.0,80,0.00,,---,0.00,VWS V14.01,2013-03-30 09:59:00,
2013-03-30 06:04:00,37.9,32.0,30.15,WSW,248,2.0,4.0,79,0.00,,---,0.00,VWS V14.01,2013-03-30 10:04:00,
2013-03-30 06:09:00,37.9,32.0,30.15,West,277,2.0,5.0,79,0.00,,---,0.00,VWS V14.01,2013-03-30 10:09:00,
2013-03-30 06:14:00,37.9,32.0,30.15,WSW,250,4.0,5.0,79,0.00,,---,0.00,VWS V14.01,2013-03-30 10:14:00,
2013-03-30 06:19:00,37.8,31.6,30.16,WSW,253,4.0,5.0,78,0.00,,---,0.00,VWS V14.01,2013-03-30 10:19:00,
2013-03-30 06:24:00,37.8,31.9,30.16,West,281,3.0,6.0,79,0.00,,---,0.00,VWS V14.01,2013-03-30 10:24:00,
2013-03-30 06:29:00,37.7,31.8,30.16,WNW,283,3.0,6.0,79,0.00,,---,0.00,VWS V14.01,2013-03-30 10:29:00,
2013-03-30 06:34:00,37.7,31.8,30.16,WNW,290,3.0,5.0,79,0.00,,---,0.00,VWS V14.01,2013-03-30 10:34:00,
2013-03-30 06:39:00,37.6,32.0,30.16,West,264,3.0,5.0,80,0.00,,---,0.00,VWS V14.01,2013-03-30 10:39:00,
2013-03-30 06:44:00,37.6,32.3,30.16,West,270,3.0,5.0,81,0.00,,---,0.00,VWS V14.01,2013-03-30 10:44:00,
2013-03-30 06:49:00,37.5,31.9,30.16,WSW,257,4.0,5.0,80,0.00,,---,0.00,VWS V14.01,2013-03-30 10:49:00,
2013-03-30 06:54:00,37.4,31.8,30.17,SW,226,3.0,6.0,80,0.00,,---,0.00,VWS V14.01,2013-03-30 10:54:00,
2013-03-30 06:59:00,37.6,31.7,30.17,WSW,247,2.0,6.0,79,0.00,,---,0.00,VWS V14.01,2013-03-30 10:59:00,
2013-03-30 07:04:00,37.7,31.5,30.17,WSW,255,4.0,4.0,78,0.00,,---,0.00,VWS V14.01,2013-03-30 11:04:00,
2013-03-30 07:09:00,37.9,31.7,30.17,WSW,242,4.0,4.0,78,0.00,,---,0.00,VWS V14.01,2013-03-30 11:09:00,
2013-03-30 07:14:00,38.1,31.9,30.17,West,269,2.0,4.0,78,0.00,,---,0.00,VWS V14.01,2013-03-30 11:14:00,
2013-03-30 07:19:00,38.4,32.2,30.17,WNW,283,2.0,4.0,78,0.00,,---,0.00,VWS V14.01,2013-03-30 11:19:00,
2013-03-30 07:24:00,38.7,32.1,30.17,West,279,3.0,5.0,77,0.00,,---,0.00,VWS V14.01,2013-03-30 11:24:00,
2013-03-30 07:29:00,39.1,32.5,30.17,WSW,248,4.0,6.0,77,0.00,,---,0.00,VWS V14.01,2013-03-30 11:29:00,
2013-03-30 07:34:00,39.3,32.4,30.18,West,275,4.0,6.0,76,0.00,,---,0.00,VWS V14.01,2013-03-30 11:34:00,
2013-03-30 07:39:00,39.5,32.6,30.18,West,276,5.0,6.0,76,0.00,,---,0.00,VWS V14.01,2013-03-30 11:39:00,
2013-03-30 07:44:00,39.6,32.7,30.18,WNW,290,4.0,6.0,76,0.00,,---,0.00,VWS V14.01,2013-03-30 11:44:00,
2013-03-30 07:49:00,39.8,33.2,30.18,West,263,4.0,6.0,77,0.00,,---,0.00,VWS V14.01,2013-03-30 11:49:00,
2013-03-30 07:54:00,40.2,33.6,30.18,WNW,300,2.0,6.0,77,0.00,,---,0.00,VWS V14.01,2013-03-30 11:54:00,
2013-03-30 07:59:00,40.8,33.8,30.18,West,275,4.0,6.0,76,0.00,,---,0.00,VWS V14.01,2013-03-30 11:59:00,
2013-03-30 08:04:00,41.0,34.0,30.18,SW,228,3.0,4.0,76,0.00,,---,0.00,VWS V14.01,2013-03-30 12:04:00,
2013-03-30 08:09:00,41.4,34.1,30.18,WNW,283,3.0,5.0,75,0.00,,---,0.00,VWS V14.01,2013-03-30 12:09:00,
2013-03-30 08:14:00,41.8,34.1,30.19,NW,315,1.0,6.0,74,0.00,,---,0.00,VWS V14.01,2013-03-30 12:14:00,
2013-03-30 08:19:00,42.4,34.7,30.19,WNW,287,3.0,6.0,74,0.00,,---,0.00,VWS V14.01,2013-03-30 12:19:00,
2013-03-30 08:24:00,42.7,35.0,30.19,West,268,2.0,6.0,74,0.00,,---,0.00,VWS V14.01,2013-03-30 12:24:00,
2013-03-30 08:29:00,43.3,33.8,30.19,WSW,257,6.0,6.0,69,0.00,,---,0.00,VWS V14.01,2013-03-30 12:29:00,
2013-03-30 08:34:00,43.7,33.8,30.19,West,272,4.0,6.0,68,0.00,,---,0.00,VWS V14.01,2013-03-30 12:34:00,
2013-03-30 08:39:00,43.7,32.7,30.19,West,267,5.0,7.0,65,0.00,,---,0.00,VWS V14.01,2013-03-30 12:39:00,
2013-03-30 08:44:00,43.8,33.6,30.19,WNW,283,2.0,7.0,67,0.00,,---,0.00,VWS V14.01,2013-03-30 12:44:00,
2013-03-30 08:49:00,43.8,33.6,30.19,WNW,292,3.0,7.0,67,0.00,,---,0.00,VWS V14.01,2013-03-30 12:49:00,
2013-03-30 08:54:00,43.9,33.3,30.19,WNW,300,3.0,7.0,66,0.00,,---,0.00,VWS V14.01,2013-03-30 12:54:00,
2013-03-30 08:59:00,44.2,34.0,30.19,WNW,290,3.0,7.0,67,0.00,,---,0.00,VWS V14.01,2013-03-30 12:59:00,
2013-03-30 09:04:00,44.8,33.8,30.19,WNW,286,4.0,6.0,65,0.00,,---,0.00,VWS V14.01,2013-03-30 13:04:00,
2013-03-30 09:09:00,44.9,33.1,30.19,West,264,5.0,7.0,63,0.00,,---,0.00,VWS V14.01,2013-03-30 13:09:00,
2013-03-30 09:14:00,45.1,33.7,30.19,WNW,283,6.0,7.0,64,0.00,,---,0.00,VWS V14.01,2013-03-30 13:14:00,
2013-03-30 09:19:00,44.9,34.2,30.19,WSW,237,7.0,8.0,66,0.00,,---,0.00,VWS V14.01,2013-03-30 13:19:00,
2013-03-30 09:24:00,45.3,33.9,30.19,WSW,257,4.0,8.0,64,0.00,,---,0.00,VWS V14.01,2013-03-30 13:24:00,
2013-03-30 09:29:00,46.6,34.7,30.19,West,275,3.0,8.0,63,0.00,,---,0.00,VWS V14.01,2013-03-30 13:29:00,
2013-03-30 09:34:00,47.9,34.3,30.19,WNW,299,3.0,5.0,59,0.00,,---,0.00,VWS V14.01,2013-03-30 13:34:00,
2013-03-30 09:39:00,47.9,35.1,30.19,WNW,288,1.0,6.0,61,0.00,,---,0.00,VWS V14.01,2013-03-30 13:39:00,
2013-03-30 09:45:00,47.1,34.8,30.19,WSW,248,6.0,7.0,62,0.00,,---,0.00,VWS V14.01,2013-03-30 13:45:00,
2013-03-30 09:50:00,47.8,35.0,30.19,WSW,258,3.0,7.0,61,0.00,,---,0.00,VWS V14.01,2013-03-30 13:50:00,
2013-03-30 09:55:00,49.1,35.0,30.19,SSW,193,2.0,7.0,58,0.00,,---,0.00,VWS V14.01,2013-03-30 13:55:00,
2013-03-30 10:00:00,49.8,34.8,30.19,WNW,290,3.0,7.0,56,0.00,,---,0.00,VWS V14.01,2013-03-30 14:00:00,
2013-03-30 10:05:00,50.4,33.9,30.19,NNW,340,3.0,5.0,53,0.00,,---,0.00,VWS V14.01,2013-03-30 14:05:00,
2013-03-30 10:10:00,50.6,33.6,30.19,NW,304,5.0,5.0,52,0.00,,---,0.00,VWS V14.01,2013-03-30 14:10:00,
2013-03-30 10:15:00,51.0,33.0,30.19,WSW,257,2.0,5.0,50,0.00,,---,0.00,VWS V14.01,2013-03-30 14:15:00,
2013-03-30 10:20:00,51.6,33.1,30.19,West,276,4.0,5.0,49,0.00,,---,0.00,VWS V14.01,2013-03-30 14:20:00,
2013-03-30 10:25:00,51.1,32.1,30.19,WNW,287,3.0,7.0,48,0.00,,---,0.00,VWS V14.01,2013-03-30 14:25:00,
2013-03-30 10:30:00,51.0,31.5,30.19,West,263,4.0,7.0,47,0.00,,---,0.00,VWS V14.01,2013-03-30 14:30:00,
2013-03-30 10:35:00,51.3,32.8,30.19,West,276,4.0,6.0,49,0.00,,---,0.00,VWS V14.01,2013-03-30 14:35:00,
2013-03-30 10:40:00,51.3,32.8,30.19,West,262,1.0,6.0,49,0.00,,---,0.00,VWS V14.01,2013-03-30 14:40:00,
2013-03-30 10:45:00,51.8,31.7,30.19,WSW,248,1.0,6.0,46,0.00,,---,0.00,VWS V14.01,2013-03-30 14:45:00,
2013-03-30 10:50:00,52.1,32.0,30.19,WSW,238,0.0,6.0,46,0.00,,---,0.00,VWS V14.01,2013-03-30 14:50:00,
2013-03-30 10:55:00,52.5,37.7,30.19,SW,214,2.0,6.0,57,0.00,,---,0.00,VWS V14.01,2013-03-30 14:55:00,
2013-03-30 11:00:00,53.0,38.6,30.18,SW,215,2.0,6.0,58,0.00,,---,0.00,VWS V14.01,2013-03-30 15:00:00,
2013-03-30 11:05:00,52.4,39.4,30.18,East,98,2.0,6.0,61,0.00,,---,0.00,VWS V14.01,2013-03-30 15:05:00,
2013-03-30 11:10:00,51.6,39.0,30.18,SE,139,3.0,6.0,62,0.00,,---,0.00,VWS V14.01,2013-03-30 15:10:00,
2013-03-30 11:15:00,51.5,38.9,30.18,West,259,3.0,6.0,62,0.00,,---,0.00,VWS V14.01,2013-03-30 15:15:00,
2013-03-30 11:20:00,52.0,39.4,30.18,WSW,247,1.0,6.0,62,0.00,,---,0.00,VWS V14.01,2013-03-30 15:20:00,
2013-03-30 11:25:00,52.3,39.3,30.18,SSW,200,3.0,6.0,61,0.00,,---,0.00,VWS V14.01,2013-03-30 15:25:00,
2013-03-30 11:30:00,52.3,40.1,30.18,ENE,65,2.0,6.0,63,0.00,,---,0.00,VWS V14.01,2013-03-30 15:30:00,
2013-03-30 11:35:00,52.5,39.9,30.18,SSW,207,2.0,6.0,62,0.00,,---,0.00,VWS V14.01,2013-03-30 15:35:00,
2013-03-30 11:40:00,52.3,40.1,30.18,NNE,26,2.0,7.0,63,0.00,,---,0.00,VWS V14.01,2013-03-30 15:40:00,
2013-03-30 11:45:00,52.2,39.2,30.18,SW,229,3.0,7.0,61,0.00,,---,0.00,VWS V14.01,2013-03-30 15:45:00,
2013-03-30 11:50:00,52.0,38.6,30.18,SSE,148,3.0,7.0,60,0.00,,---,0.00,VWS V14.01,2013-03-30 15:50:00,
2013-03-30 11:55:00,51.4,38.8,30.18,SSE,148,4.0,7.0,62,0.00,,---,0.00,VWS V14.01,2013-03-30 15:55:00,
2013-03-30 12:00:00,51.3,39.5,30.17,WSW,248,1.0,2.0,64,0.00,,---,0.00,VWS V14.01,2013-03-30 16:00:00,
2013-03-30 12:05:00,51.9,40.5,30.17,SSE,156,3.0,5.0,65,0.00,,---,0.00,VWS V14.01,2013-03-30 16:05:00,
2013-03-30 12:10:00,51.6,40.2,30.17,West,271,3.0,5.0,65,0.00,,---,0.00,VWS V14.01,2013-03-30 16:10:00,
2013-03-30 12:15:00,50.7,39.4,30.17,SW,231,1.0,5.0,65,0.00,,---,0.00,VWS V14.01,2013-03-30 16:15:00,
2013-03-30 12:20:00,50.6,39.3,30.17,SSE,155,3.0,6.0,65,0.00,,---,0.00,VWS V14.01,2013-03-30 16:20:00,
2013-03-30 12:25:00,51.2,40.2,30.17,South,188,1.0,6.0,66,0.00,,---,0.00,VWS V14.01,2013-03-30 16:25:00,
2013-03-30 12:30:00,51.8,40.4,30.17,SW,236,3.0,5.0,65,0.00,,---,0.00,VWS V14.01,2013-03-30 16:30:00,
2013-03-30 12:35:00,52.2,40.4,30.16,SW,225,2.0,6.0,64,0.00,,---,0.00,VWS V14.01,2013-03-30 16:35:00,
2013-03-30 12:40:00,51.9,39.3,30.16,ESE,122,4.0,6.0,62,0.00,,---,0.00,VWS V14.01,2013-03-30 16:40:00,
2013-03-30 12:46:00,50.5,39.2,30.16,SE,130,5.0,7.0,65,0.00,,---,0.00,VWS V14.01,2013-03-30 16:46:00,
2013-03-30 12:51:00,50.6,39.3,30.16,South,185,2.0,7.0,65,0.00,,---,0.00,VWS V14.01,2013-03-30 16:51:00,
2013-03-30 12:56:00,49.9,38.6,30.16,SE,136,5.0,7.0,65,0.00,,---,0.00,VWS V14.01,2013-03-30 16:56:00,
2013-03-30 13:01:00,48.9,38.4,30.16,SSE,150,4.0,7.0,67,0.00,,---,0.00,VWS V14.01,2013-03-30 17:01:00,
2013-03-30 13:06:00,48.8,38.7,30.15,SSW,192,3.0,7.0,68,0.00,,---,0.00,VWS V14.01,2013-03-30 17:06:00,
2013-03-30 13:11:00,49.6,39.5,30.15,SW,236,3.0,7.0,68,0.00,,---,0.00,VWS V14.01,2013-03-30 17:11:00,
2013-03-30 13:16:00,51.1,39.8,30.15,West,277,3.0,8.0,65,0.00,,---,0.00,VWS V14.01,2013-03-30 17:16:00,
2013-03-30 13:21:00,51.5,39.3,30.15,SW,224,4.0,9.0,63,0.00,,---,0.00,VWS V14.01,2013-03-30 17:21:00,
2013-03-30 13:26:00,51.6,38.6,30.15,East,93,5.0,9.0,61,0.00,,---,0.00,VWS V14.01,2013-03-30 17:26:00,
2013-03-30 13:31:00,51.4,39.2,30.15,SSW,203,3.0,6.0,63,0.00,,---,0.00,VWS V14.01,2013-03-30 17:31:00,
2013-03-30 13:36:00,51.8,40.0,30.14,SSW,200,4.0,7.0,64,0.00,,---,0.00,VWS V14.01,2013-03-30 17:36:00,
2013-03-30 13:41:00,52.0,40.2,30.14,SW,224,2.0,8.0,64,0.00,,---,0.00,VWS V14.01,2013-03-30 17:41:00,
2013-03-30 13:46:00,52.3,40.5,30.14,South,174,2.0,8.0,64,0.00,,---,0.00,VWS V14.01,2013-03-30 17:46:00,
2013-03-30 13:51:00,52.3,40.5,30.14,West,278,2.0,8.0,64,0.00,,---,0.00,VWS V14.01,2013-03-30 17:51:00,
2013-03-30 13:57:00,52.2,41.2,30.14,West,278,2.0,8.0,66,0.00,,---,0.00,VWS V14.01,2013-03-30 17:57:00,
2013-03-30 14:02:00,51.6,40.2,30.14,WNW,290,1.0,5.0,65,0.00,,---,0.00,VWS V14.01,2013-03-30 18:02:00,
2013-03-30 14:07:00,51.6,40.2,30.13,SW,236,4.0,7.0,65,0.00,,---,0.00,VWS V14.01,2013-03-30 18:07:00,
2013-03-30 14:12:00,51.5,39.7,30.13,SSW,203,4.0,7.0,64,0.00,,---,0.00,VWS V14.01,2013-03-30 18:12:00,
2013-03-30 14:17:00,51.6,40.2,30.13,South,191,2.0,9.0,65,0.00,,---,0.00,VWS V14.01,2013-03-30 18:17:00,
2013-03-30 14:22:00,51.3,40.0,30.13,ESE,117,6.0,9.0,65,0.00,,---,0.00,VWS V14.01,2013-03-30 18:22:00,
2013-03-30 14:27:00,51.3,40.3,30.12,SW,232,5.0,9.0,66,0.00,,---,0.00,VWS V14.01,2013-03-30 18:27:00,
2013-03-30 14:32:00,50.7,40.2,30.12,NE,49,4.0,8.0,67,0.00,,---,0.00,VWS V14.01,2013-03-30 18:32:00,
2013-03-30 14:37:00,50.9,40.0,30.12,SSW,203,5.0,8.0,66,0.00,,---,0.00,VWS V14.01,2013-03-30 18:37:00,
2013-03-30 14:42:00,50.6,39.3,30.12,East,93,3.0,9.0,65,0.00,,---,0.00,VWS V14.01,2013-03-30 18:42:00,
2013-03-30 14:47:00,50.4,39.5,30.12,SW,230,3.0,10.0,66,0.00,,---,0.00,VWS V14.01,2013-03-30 18:47:00,
2013-03-30 14:52:00,50.4,39.9,30.12,SW,221,6.0,10.0,67,0.00,,---,0.00,VWS V14.01,2013-03-30 18:52:00,
2013-03-30 14:57:00,50.4,39.5,30.12,WSW,237,3.0,10.0,66,0.00,,---,0.00,VWS V14.01,2013-03-30 18:57:00,
2013-03-30 15:02:00,50.5,39.6,30.12,SW,229,3.0,6.0,66,0.00,,---,0.00,VWS V14.01,2013-03-30 19:02:00,
2013-03-30 15:07:00,50.7,39.4,30.12,SW,229,3.0,8.0,65,0.00,,---,0.00,VWS V14.01,2013-03-30 19:07:00,
2013-03-30 15:12:00,50.7,39.8,30.12,WSW,245,3.0,11.0,66,0.00,,---,0.00,VWS V14.01,2013-03-30 19:12:00,
2013-03-30 15:17:00,50.7,39.0,30.11,WSW,252,4.0,11.0,64,0.00,,---,0.00,VWS V14.01,2013-03-30 19:17:00,
2013-03-30 15:22:00,50.4,39.1,30.11,SE,144,5.0,11.0,65,0.00,,---,0.00,VWS V14.01,2013-03-30 19:22:00,
2013-03-30 15:27:00,50.3,39.8,30.11,SSW,198,8.0,11.0,67,0.00,,---,0.00,VWS V14.01,2013-03-30 19:27:00,
2013-03-30 15:32:00,50.4,39.5,30.11,SSW,207,5.0,8.0,66,0.00,,---,0.00,VWS V14.01,2013-03-30 19:32:00,
2013-03-30 15:37:00,49.7,39.2,30.11,NNE,19,9.0,9.0,67,0.00,,---,0.00,VWS V14.01,2013-03-30 19:37:00,
2013-03-30 15:42:00,49.9,39.8,30.11,SW,219,9.0,9.0,68,0.00,,---,0.00,VWS V14.01,2013-03-30 19:42:00,
2013-03-30 15:48:00,49.8,40.0,30.11,SSW,208,3.0,10.0,69,0.00,,---,0.00,VWS V14.01,2013-03-30 19:48:00,
2013-03-30 15:53:00,49.7,40.3,30.10,WNW,290,7.0,10.0,70,0.00,,---,0.00,VWS V14.01,2013-03-30 19:53:00,
2013-03-30 15:58:00,49.6,40.2,30.10,WSW,243,3.0,10.0,70,0.00,,---,0.00,VWS V14.01,2013-03-30 19:58:00,
2013-03-30 16:03:00,49.8,40.4,30.10,ESE,110,4.0,8.0,70,0.00,,---,0.00,VWS V14.01,2013-03-30 20:03:00,
2013-03-30 16:08:00,49.8,40.4,30.10,NNW,338,5.0,9.0,70,0.00,,---,0.00,VWS V14.01,2013-03-30 20:08:00,
2013-03-30 16:13:00,49.6,40.2,30.10,WSW,240,4.0,11.0,70,0.00,,---,0.00,VWS V14.01,2013-03-30 20:13:00,
2013-03-30 16:18:00,49.4,40.4,30.10,West,259,6.0,11.0,71,0.00,,---,0.00,VWS V14.01,2013-03-30 20:18:00,
2013-03-30 16:23:00,48.7,40.1,30.10,South,187,3.0,11.0,72,0.00,,---,0.00,VWS V14.01,2013-03-30 20:23:00,
2013-03-30 16:28:00,48.2,40.0,30.09,SW,217,3.0,11.0,73,0.00,,---,0.00,VWS V14.01,2013-03-30 20:28:00,
2013-03-30 16:33:00,47.7,39.8,30.09,NE,51,8.0,9.0,74,0.00,,---,0.00,VWS V14.01,2013-03-30 20:33:00,
2013-03-30 16:38:00,47.8,39.9,30.09,ESE,104,6.0,9.0,74,0.00,,---,0.00,VWS V14.01,2013-03-30 20:38:00,
2013-03-30 16:43:00,48.2,40.7,30.09,South,170,5.0,9.0,75,0.00,,---,0.00,VWS V14.01,2013-03-30 20:43:00,
2013-03-30 16:48:00,48.8,40.5,30.09,NNW,340,3.0,9.0,73,0.00,,---,0.00,VWS V14.01,2013-03-30 20:48:00,
2013-03-30 16:53:00,49.3,40.7,30.09,SSE,150,2.0,9.0,72,0.00,,---,0.00,VWS V14.01,2013-03-30 20:53:00,
2013-03-30 16:58:00,49.5,40.9,30.09,SE,143,5.0,9.0,72,0.00,,---,0.00,VWS V14.01,2013-03-30 20:58:00,
2013-03-30 17:03:00,49.7,40.7,30.09,SSW,195,3.0,6.0,71,0.00,,---,0.00,VWS V14.01,2013-03-30 21:03:00,
2013-03-30 17:08:00,49.7,40.7,30.09,ESE,115,3.0,6.0,71,0.00,,---,0.00,VWS V14.01,2013-03-30 21:08:00,
2013-03-30 17:13:00,49.6,41.0,30.09,SSE,159,2.0,6.0,72,0.00,,---,0.00,VWS V14.01,2013-03-30 21:13:00,
2013-03-30 17:18:00,49.4,41.1,30.09,East,95,1.0,6.0,73,0.00,,---,0.00,VWS V14.01,2013-03-30 21:18:00,
2013-03-30 17:23:00,49.5,41.2,30.09,WSW,252,1.0,6.0,73,0.00,,---,0.00,VWS V14.01,2013-03-30 21:23:00,
2013-03-30 17:28:00,50.0,41.0,30.09,ESE,122,2.0,6.0,71,0.00,,---,0.00,VWS V14.01,2013-03-30 21:28:00,
2013-03-30 17:34:00,50.2,41.2,30.09,West,269,1.0,4.0,71,0.00,,---,0.00,VWS V14.01,2013-03-30 21:34:00,
2013-03-30 17:39:00,50.3,41.3,30.10,East,96,3.0,5.0,71,0.00,,---,0.00,VWS V14.01,2013-03-30 21:39:00,
2013-03-30 17:43:00,50.1,41.1,30.10,NW,324,2.0,6.0,71,0.00,,---,0.00,VWS V14.01,2013-03-30 21:43:00,
2013-03-30 17:48:00,49.9,40.9,30.10,SW,220,1.0,6.0,71,0.00,,---,0.00,VWS V14.01,2013-03-30 21:48:00,
2013-03-30 17:54:00,49.7,40.7,30.10,WSW,238,4.0,7.0,71,0.00,,---,0.00,VWS V14.01,2013-03-30 21:54:00,
2013-03-30 17:59:00,49.3,40.7,30.10,WNW,295,4.0,7.0,72,0.00,,---,0.00,VWS V14.01,2013-03-30 21:59:00,
2013-03-30 18:04:00,49.1,40.5,30.10,WNW,301,2.0,5.0,72,0.00,,---,0.00,VWS V14.01,2013-03-30 22:04:00,
2013-03-30 18:09:00,48.9,40.6,30.10,South,169,4.0,7.0,73,0.00,,---,0.00,VWS V14.01,2013-03-30 22:09:00,
2013-03-30 18:14:00,48.8,39.5,30.10,SSW,210,1.0,7.0,70,0.00,,---,0.00,VWS V14.01,2013-03-30 22:14:00,
2013-03-30 18:19:00,48.7,40.1,30.10,SE,130,7.0,9.0,72,0.00,,---,0.00,VWS V14.01,2013-03-30 22:19:00,
2013-03-30 18:24:00,48.1,40.2,30.10,SE,146,4.0,9.0,74,0.00,,---,0.00,VWS V14.01,2013-03-30 22:24:00,
2013-03-30 18:29:00,47.7,40.2,30.10,SE,132,2.0,11.0,75,0.00,,---,0.00,VWS V14.01,2013-03-30 22:29:00,
2013-03-30 18:34:00,47.4,39.9,30.10,East,96,5.0,12.0,75,0.00,,---,0.00,VWS V14.01,2013-03-30 22:34:00,
2013-03-30 18:39:00,47.1,39.6,30.10,SW,220,7.0,13.0,75,0.00,,---,0.00,VWS V14.01,2013-03-30 22:39:00,
2013-03-30 18:44:00,47.2,39.3,30.10,WSW,251,9.0,13.0,74,0.00,,---,0.00,VWS V14.01,2013-03-30 22:44:00,
2013-03-30 18:49:00,47.2,39.0,30.10,WNW,290,5.0,13.0,73,0.00,,---,0.00,VWS V14.01,2013-03-30 22:49:00,
2013-03-30 18:54:00,47.1,38.5,30.10,SSW,195,6.0,13.0,72,0.00,,---,0.00,VWS V14.01,2013-03-30 22:54:00,
2013-03-30 18:59:00,46.8,38.6,30.10,SSW,212,10.0,15.0,73,0.00,,---,0.00,VWS V14.01,2013-03-30 22:59:00,
2013-03-30 19:04:00,46.6,37.3,30.10,SSE,157,8.0,12.0,70,0.00,,---,0.00,VWS V14.01,2013-03-30 23:04:00,
2013-03-30 19:09:00,46.5,37.3,30.10,SSW,203,11.0,17.0,70,0.00,,---,0.00,VWS V14.01,2013-03-30 23:09:00,
2013-03-30 19:14:00,46.4,36.8,30.10,SSW,199,7.0,17.0,69,0.00,,---,0.00,VWS V14.01,2013-03-30 23:14:00,
2013-03-30 19:19:00,46.5,35.8,30.11,West,270,6.0,17.0,66,0.00,,---,0.00,VWS V14.01,2013-03-30 23:19:00,
2013-03-30 19:24:00,46.9,35.4,30.11,SW,222,4.0,17.0,64,0.00,,---,0.00,VWS V14.01,2013-03-30 23:24:00,
2013-03-30 19:29:00,47.2,34.0,30.11,South,177,4.0,17.0,60,0.00,,---,0.00,VWS V14.01,2013-03-30 23:29:00,
2013-03-30 19:34:00,47.6,33.6,30.11,SSW,212,5.0,11.0,58,0.00,,---,0.00,VWS V14.01,2013-03-30 23:34:00,
2013-03-30 19:39:00,47.7,33.7,30.11,SW,231,4.0,11.0,58,0.00,,---,0.00,VWS V14.01,2013-03-30 23:39:00,
2013-03-30 19:44:00,47.9,33.4,30.11,SSW,193,3.0,11.0,57,0.00,,---,0.00,VWS V14.01,2013-03-30 23:44:00,
2013-03-30 19:49:00,47.9,33.4,30.11,SW,227,5.0,13.0,57,0.00,,---,0.00,VWS V14.01,2013-03-30 23:49:00,
2013-03-30 19:54:00,47.8,33.3,30.11,SSW,194,3.0,13.0,57,0.00,,---,0.00,VWS V14.01,2013-03-30 23:54:00,
2013-03-30 19:59:00,47.6,33.6,30.11,South,181,6.0,13.0,58,0.00,,---,0.00,VWS V14.01,2013-03-30 23:59:00,
2013-03-30 20:04:00,47.6,33.6,30.12,SSW,193,4.0,8.0,58,0.00,,---,0.00,VWS V14.01,2013-03-31 00:04:00,
2013-03-30 20:09:00,47.7,33.7,30.12,SW,227,4.0,10.0,58,0.00,,---,0.00,VWS V14.01,2013-03-31 00:09:00,
2013-03-30 20:14:00,47.6,33.6,30.12,ESE,123,3.0,10.0,58,0.00,,---,0.00,VWS V14.01,2013-03-31 00:14:00,
2013-03-30 20:19:00,47.6,33.6,30.12,South,184,8.0,11.0,58,0.00,,---,0.00,VWS V14.01,2013-03-31 00:19:00,
2013-03-30 20:25:00,47.8,33.8,30.12,SW,226,8.0,11.0,58,0.00,,---,0.00,VWS V14.01,2013-03-31 00:25:00,
2013-03-30 20:30:00,47.7,33.7,30.12,SSW,201,1.0,11.0,58,0.00,,---,0.00,VWS V14.01,2013-03-31 00:30:00,
2013-03-30 20:35:00,47.5,33.9,30.12,South,186,3.0,6.0,59,0.00,,---,0.00,VWS V14.01,2013-03-31 00:35:00,
2013-03-30 20:40:00,47.5,33.9,30.13,SSW,204,3.0,6.0,59,0.00,,---,0.00,VWS V14.01,2013-03-31 00:40:00,
2013-03-30 20:45:00,47.3,34.1,30.13,SW,221,4.0,9.0,60,0.00,,---,0.00,VWS V14.01,2013-03-31 00:45:00,
2013-03-30 20:50:00,47.3,33.7,30.13,SSW,203,3.0,9.0,59,0.00,,---,0.00,VWS V14.01,2013-03-31 00:50:00,
2013-03-30 20:55:00,47.2,33.6,30.13,SW,219,6.0,9.0,59,0.00,,---,0.00,VWS V14.01,2013-03-31 00:55:00,
2013-03-30 21:00:00,47.1,32.7,30.13,ESE,118,4.0,12.0,57,0.00,,---,0.00,VWS V14.01,2013-03-31 01:00:00,
2013-03-30 21:05:00,47.0,32.1,30.13,East,95,5.0,10.0,56,0.00,,---,0.00,VWS V14.01,2013-03-31 01:05:00,
2013-03-30 21:10:00,46.8,32.0,30.13,ESE,123,3.0,10.0,56,0.00,,---,0.00,VWS V14.01,2013-03-31 01:10:00,
2013-03-30 21:15:00,46.1,35.8,30.14,SSE,168,7.0,14.0,67,0.00,,---,0.00,VWS V14.01,2013-03-31 01:15:00,
2013-03-30 21:20:00,45.4,36.2,30.14,NNW,338,7.0,14.0,70,0.00,,---,0.00,VWS V14.01,2013-03-31 01:20:00,
2013-03-30 21:25:00,45.3,35.7,30.14,SW,229,3.0,14.0,69,0.00,,---,0.00,VWS V14.01,2013-03-31 01:25:00,
2013-03-30 21:30:00,45.1,35.5,30.14,East,100,8.0,14.0,69,0.00,,---,0.00,VWS V14.01,2013-03-31 01:30:00,
2013-03-30 21:35:00,44.8,36.7,30.14,NNW,346,5.0,14.0,73,0.00,,---,0.00,VWS V14.01,2013-03-31 01:35:00,
2013-03-30 21:40:00,44.5,36.7,30.14,SW,236,8.0,15.0,74,0.00,,---,0.00,VWS V14.01,2013-03-31 01:40:00,
2013-03-30 21:45:00,44.3,37.2,30.14,WSW,252,6.0,15.0,76,0.00,,---,0.00,VWS V14.01,2013-03-31 01:45:00,
2013-03-30 21:50:00,44.1,37.0,30.15,SSW,194,5.0,16.0,76,0.00,,---,0.00,VWS V14.01,2013-03-31 01:50:00,
2013-03-30 21:55:00,44.1,36.7,30.15,SSW,211,14.0,16.0,75,0.00,,---,0.00,VWS V14.01,2013-03-31 01:55:00,
2013-03-30 22:00:00,44.3,35.9,30.15,SSW,200,6.0,8.0,72,0.00,,---,0.00,VWS V14.01,2013-03-31 02:00:00,
2013-03-30 22:05:00,44.5,35.7,30.16,West,270,5.0,15.0,71,0.00,,---,0.00,VWS V14.01,2013-03-31 02:05:00,
2013-03-30 22:10:00,44.6,35.8,30.16,NW,307,3.0,15.0,71,0.00,,---,0.00,VWS V14.01,2013-03-31 02:10:00,
2013-03-30 22:15:00,44.5,36.0,30.16,SW,228,10.0,15.0,72,0.00,,---,0.00,VWS V14.01,2013-03-31 02:15:00,
2013-03-30 22:20:00,44.5,36.0,30.16,SSW,193,8.0,16.0,72,0.00,,---,0.00,VWS V14.01,2013-03-31 02:20:00,
2013-03-30 22:25:00,44.5,36.0,30.16,SW,235,3.0,16.0,72,0.00,,---,0.00,VWS V14.01,2013-03-31 02:25:00,
2013-03-30 22:30:00,44.5,36.0,30.16,ESE,120,9.0,12.0,72,0.00,,---,0.00,VWS V14.01,2013-03-31 02:30:00,
2013-03-30 22:35:00,44.5,36.0,30.16,SSW,193,8.0,13.0,72,0.00,,---,0.00,VWS V14.01,2013-03-31 02:35:00,
2013-03-30 22:40:00,44.4,36.3,30.16,WSW,244,3.0,13.0,73,0.00,,---,0.00,VWS V14.01,2013-03-31 02:40:00,
2013-03-30 22:46:00,44.3,36.5,30.16,ESE,115,5.0,13.0,74,0.00,,---,0.00,VWS V14.01,2013-03-31 02:46:00,
2013-03-30 22:51:00,44.2,36.5,30.16,SSW,208,9.0,13.0,74,0.00,,---,0.00,VWS V14.01,2013-03-31 02:51:00,
2013-03-30 22:56:00,44.3,36.2,30.16,SSW,204,6.0,15.0,73,0.00,,---,0.00,VWS V14.01,2013-03-31 02:56:00,
2013-03-30 23:01:00,44.3,36.5,30.16,South,174,8.0,9.0,74,0.00,,---,0.00,VWS V14.01,2013-03-31 03:01:00,
2013-03-30 23:06:00,44.2,36.5,30.15,SSW,209,10.0,13.0,74,0.00,,---,0.00,VWS V14.01,2013-03-31 03:06:00,
2013-03-30 23:11:00,44.4,36.0,30.16,SW,219,6.0,16.0,72,0.00,,---,0.00,VWS V14.01,2013-03-31 03:11:00,
2013-03-30 23:16:00,44.4,36.3,30.16,NE,56,4.0,16.0,73,0.00,,---,0.00,VWS V14.01,2013-03-31 03:16:00,
2013-03-30 23:21:00,44.1,36.4,30.15,SW,222,5.0,16.0,74,0.00,,---,0.00,VWS V14.01,2013-03-31 03:21:00,
2013-03-30 23:26:00,44.1,36.4,30.15,NNW,331,4.0,16.0,74,0.00,,---,0.00,VWS V14.01,2013-03-31 03:26:00,
2013-03-30 23:31:00,44.0,36.6,30.15,SSW,195,3.0,8.0,75,0.00,,---,0.00,VWS V14.01,2013-03-31 03:31:00,
2013-03-30 23:37:00,43.9,36.5,30.16,SSE,153,1.0,9.0,75,0.00,,---,0.00,VWS V14.01,2013-03-31 03:37:00,
2013-03-30 23:42:00,44.0,36.3,30.15,SW,233,9.0,10.0,74,0.00,,---,0.00,VWS V14.01,2013-03-31 03:42:00,
2013-03-30 23:47:00,43.9,36.8,30.15,West,276,2.0,12.0,76,0.00,,---,0.00,VWS V14.01,2013-03-31 03:47:00,
2013-03-30 23:52:00,43.7,37.0,30.15,South,179,7.0,12.0,77,0.00,,---,0.00,VWS V14.01,2013-03-31 03:52:00,
2013-03-30 23:57:00,43.7,36.6,30.15,SE,131,5.0,12.0,76,0.00,,---,0.00,VWS V14.01,2013-03-31 03:57:00,